Regional Weather Roundup
Issued by NWS

Home | Current Version | Previous Version | Graphics & Text | Print | Product List | Glossary On
Versions: 1 2 3 4 5 6 7 8 9 10 11 12 13 14 15 16 17 18 19 20 21 22 23 24 25 26 27 28 29 30 31 32 33 34 35 36 37 38 39 40 41 42 43 44 45 46 47 48 49 50
000
ASUS43 KOAX 200702
RWRNE

WEATHER ROUNDUP FOR NEBRASKA
NATIONAL WEATHER SERVICE OMAHA NE
200 AM CDT SUN APR 20 2014

NOTES: SATELLITE DATA IS BEING USED TO AUGMENT CLOUD COVER ABOVE
       12000 FEET.
       "FAIR" INDICATES FEW OR NO CLOUDS BELOW 12,000 FEET WITH NO
       SIGNIFICANT WEATHER AND/OR OBSTRUCTIONS TO VISIBILITY.

  * THESE STATIONS DO NOT REPORT WEATHER SUCH AS RAIN...SNOW OR FOG.

NEZ001>004-019>022-054>056-200800-
NEBRASKA PANHANDLE

CITY           SKY/WX    TMP DP  RH WIND       PRES   REMARKS
SCOTTSBLUFF    PTCLDY    46  34  62 E8        30.02S
ALLIANCE       CLEAR     40  32  73 S8        30.02R WCI  34
CHADRON        CLEAR     46  35  65 SE5       29.97F
KIMBALL        PTCLDY    41  34  75 SW8       30.05S
SIDNEY         PTCLDY    45  35  68 SW12      30.04F
$$

NEZ057>060-069>072-079>082-200800-
SOUTHWEST NEBRASKA

CITY           SKY/WX    TMP DP  RH WIND       PRES   REMARKS
NORTH PLATTE   PTCLDY    43  39  86 NW9       30.01S
IMPERIAL       PTCLDY    47  42  83 N5        30.01S
LEXINGTON      MOCLDY    55  47  76 N12       29.96F
MCCOOK         PTCLDY    53  50  89 E3        29.99R
OGALLALA       CLEAR     43  36  74 CALM      30.04S
$$

NEZ005>010-023>029-035>040-094-200800-
NORTH CENTRAL NEBRASKA

CITY           SKY/WX    TMP DP  RH WIND       PRES   REMARKS
VALENTINE      CLEAR     35  23  61 SW5       30.02S WCI  31
AINSWORTH      CLEAR     45  29  52 CALM      30.03R
BROKEN BOW     MOCLDY    50  39  66 CALM      29.99S
O`NEILL        PTCLDY    50  31  48 NE7       30.00S
ORD            CLEAR     52  39  61 N3        29.97S
THEDFORD       PTCLDY    48  37  64 CALM      30.03S
$$

NEZ041-046>049-061>064-073>077-083>087-200800-
SOUTH CENTRAL NEBRASKA

CITY           SKY/WX    TMP DP  RH WIND       PRES   REMARKS
GRAND ISLAND   MOCLDY    58  50  75 S6        29.95S
HASTINGS       CLOUDY    62  48  60 SW6       29.95S
HEBRON         PTCLDY    64  49  58 S13       29.98R
HOLDREGE       CLOUDY    57  50  76 CALM      29.98R
KEARNEY *      CLOUDY    57  48  72 N8        29.96F
YORK           PTCLDY    63  48  59 S14       29.95F
$$

NEZ011>018-030>034-042>045-200800-
NORTHEAST NEBRASKA

CITY           SKY/WX    TMP DP  RH WIND       PRES   REMARKS
NORFOLK        PTCLDY    56  44  64 CALM      29.96F
ALBION         PTCLDY    56  42  58 NE13      29.96S
BLAIR          MOCLDY    65  43  44 S17       29.98S
COLUMBUS *     PTCLDY    61  45  55 S7        29.97S
FREMONT        CLOUDY    65  44  45 SE15      29.97F
TEKAMAH        MOCLDY    64  44  48 S10       29.97S
$$

NEZ050>053-065>068-078-088>093-200800-
SOUTHEAST NEBRASKA

CITY           SKY/WX    TMP DP  RH WIND       PRES   REMARKS
LINCOLN        PTCLDY    66  45  46 S16       29.98R
OMAHA EPPLEY   MOCLDY    65  44  46 S16       29.99S
BEATRICE       PTCLDY    64  45  50 S13       30.00S
FALLS CITY     PTCLDY    63  45  51 S12       30.04S
$$

NEZ044-045-051>053-067-200800-
OMAHA AREA

CITY           SKY/WX    TMP DP  RH WIND       PRES   REMARKS
OMAHA EPPLEY   MOCLDY    65  44  46 S16       29.99S
BLAIR          MOCLDY    65  43  44 S17       29.98S
FREMONT        CLOUDY    65  44  45 SE15      29.97F
OFFUTT AFB     PTCLDY    63  46  53 SE12      30.00S
$$



USA.gov is the U.S. government's official web portal to all federal, state and local government web resources and services.